[[{"header":{"parameterUnit":"m.s-1","parameterCategory":1,"la1":30.2992,"la2":30.254,"lo1":-89.0895,"lo2":-89.0443,"dy":0.0025,"dx":0.0025,"nx":19,"ny":19,"refTime":"2026-05-07T21:00:00:Z","depth":0,"parameterNumber":2,"parameterNumberName":"U-component_of_WINDS"},"data":[0,0,0,-2.6567,-2.6568,-2.6575,-2.6574,-2.6627,-2.6628,0,0,0,0,0,0,0,0,0,0,0,-2.659,-2.6592,-2.6567,-2.6568,-2.6575,-2.6574,-2.6627,-2.6628,0,0,0,0,0,0,0,0,0,0,0,-2.659,-2.6591,-2.6593,-2.6568,-2.6575,-2.6574,-2.6627,-2.6606,0,0,0,0,0,0,0,0,0,0,-2.6593,-2.6638,-2.6591,-2.6593,-2.6568,-2.6575,-2.6574,-2.6605,-2.6608,-2.6642,0,-2.6678,0,-2.6654,-2.6634,-2.6634,0,0,0,-2.655,-2.6636,-2.6615,-2.6593,-2.6569,-2.6575,-2.6567,-2.6606,-2.6609,-2.6647,-2.6679,-2.668,-2.6655,-2.6635,-2.6635,-2.6892,-2.6894,0,0,-2.655,-2.6606,-2.6613,-2.6618,-2.6618,-2.6567,-2.6567,-2.6607,-2.6647,-2.6679,-2.668,-2.6656,-2.6635,-2.6636,-2.689,-2.6892,0,0,0,-2.6561,-2.6607,-2.6583,-2.6617,-2.6615,-2.6567,-2.6568,-2.6645,-2.6632,-2.668,-2.6657,-2.6636,-2.6637,-2.6887,-2.6891,-2.7047,0,0,0,-2.656,-2.6613,-2.6584,-2.6619,-2.6615,-2.663,-2.6606,-2.663,-2.6632,-2.6656,-2.6636,-2.6638,-2.6885,-2.6889,-2.7037,-2.7112,0,0,0,-2.6582,-2.6615,-2.6624,-2.6622,-2.6626,-2.6628,-2.6617,-2.6629,-2.6619,-2.6635,-2.6638,-2.6884,-2.6888,-2.7029,-2.7098,-2.7196,0,0,0,-2.6622,-2.6764,-2.6628,-2.6777,-2.6626,-2.6723,-2.6616,-2.6686,-2.6718,-2.6636,-2.6885,-2.689,-2.7027,-2.709,-2.7188,-2.729,-2.7337,0,0,-2.6833,-2.6792,-2.6875,-2.6753,-2.6888,-2.6718,-2.6876,-2.6853,-2.6804,-2.6866,-2.6871,-2.7041,-2.7097,-2.7195,-2.7581,-2.7619,0,0,0,-2.6961,-2.7022,-2.7045,-2.7077,-2.7061,-2.7054,-2.7,-2.6991,-2.704,-2.6847,-2.71,-2.7132,-2.7187,-2.7233,-2.7265,-2.7309,-2.6914,-2.6913,-2.6913,-2.7343,-2.727,-2.7403,-2.7331,-2.7364,-2.7305,-2.7326,-2.7304,-2.7223,-2.7284,-2.7303,-2.7545,-2.7602,-2.7625,-2.7672,-2.7349,-2.735,-2.735,-2.7351,-2.7646,-2.7721,-2.7607,-2.7696,-2.7619,-2.7693,-2.7643,-2.7583,-2.7642,-2.7526,-2.757,-2.7451,-2.767,-2.7706,-2.7362,-2.736,-2.7358,-2.7357,-2.7357,-2.7889,-2.7912,-2.7897,-2.7935,-2.7972,-2.7894,-2.7956,-2.7884,-2.7816,-2.786,-2.7872,-2.787,-2.7859,-2.7871,-2.7872,-2.7872,-2.7873,-2.7874,-2.7874,-2.8148,-2.8125,-2.8185,-2.8179,-2.8189,-2.8194,-2.8136,-2.8145,-2.8137,-2.8079,-2.8079,-2.7993,-2.7703,-2.7633,-2.7887,-2.7885,-2.7883,-2.7882,-2.7881,-2.8485,-2.8396,-2.8489,-2.8499,-2.8486,-2.8528,-2.8434,-2.8458,-2.8455,-2.8488,-2.8391,-2.8188,-2.8142,-2.8115,-2.8057,-2.8405,-2.8405,-2.8405,-2.8405,-2.8691,-2.8659,-2.8736,-2.8758,-2.877,-2.8694,-2.8802,-2.8759,-2.8701,-2.8694,-2.8633,-2.8548,-2.8525,-2.8492,-2.8458,-2.8402,-2.883,-2.8831,-2.8831,-2.8895,-2.886,-2.8966,-2.8905,-2.8889,-2.8877,-2.8977,-2.9007,-2.8923,-2.8847,-2.8688,-2.867,-2.8533,-2.8491,-2.8414,-2.8362,-2.8259,0,0]},{"header":{"parameterUnit":"m.s-1","parameterCategory":1,"la1":30.2992,"la2":30.254,"lo1":-89.0895,"lo2":-89.0443,"dy":0.0025,"dx":0.0025,"nx":19,"ny":19,"refTime":"2026-05-07T21:00:00:Z","depth":0,"parameterNumber":3,"parameterNumberName":"V-component_of_WINDS"},"data":[0,0,0,-2.7974,-2.7975,-2.798,-2.798,-2.7993,-2.7993,0,0,0,0,0,0,0,0,0,0,0,-2.7977,-2.7977,-2.7974,-2.7975,-2.798,-2.798,-2.7993,-2.7993,0,0,0,0,0,0,0,0,0,0,0,-2.7977,-2.7977,-2.7978,-2.7975,-2.798,-2.798,-2.7993,-2.7986,0,0,0,0,0,0,0,0,0,0,-2.798,-2.7987,-2.7977,-2.7978,-2.7975,-2.798,-2.798,-2.7986,-2.7987,-2.7993,0,-2.8001,0,-2.7997,-2.7994,-2.7994,0,0,0,-2.7971,-2.7987,-2.7984,-2.7978,-2.7975,-2.798,-2.7976,-2.7986,-2.7987,-2.7994,-2.8001,-2.8001,-2.7997,-2.7994,-2.7995,-2.8043,-2.8044,0,0,-2.7971,-2.798,-2.7983,-2.7985,-2.7985,-2.7976,-2.7977,-2.7987,-2.7994,-2.8001,-2.8001,-2.7998,-2.7995,-2.7995,-2.8043,-2.8043,0,0,0,-2.7972,-2.798,-2.7977,-2.7985,-2.7985,-2.7977,-2.7977,-2.7994,-2.7992,-2.8001,-2.7998,-2.7995,-2.7995,-2.8043,-2.8043,-2.807,0,0,0,-2.7972,-2.7981,-2.7977,-2.7983,-2.7985,-2.799,-2.7984,-2.7991,-2.7992,-2.7998,-2.7995,-2.7995,-2.8042,-2.8043,-2.8068,-2.8081,0,0,0,-2.7975,-2.7981,-2.7984,-2.7984,-2.7986,-2.7989,-2.7988,-2.7991,-2.799,-2.7994,-2.7995,-2.8042,-2.8043,-2.8067,-2.8078,-2.8095,0,0,0,-2.7981,-2.8009,-2.7984,-2.8013,-2.7986,-2.8006,-2.7988,-2.8002,-2.8009,-2.7995,-2.8042,-2.8043,-2.8066,-2.8077,-2.8094,-2.811,-2.8118,0,0,-2.8021,-2.8014,-2.803,-2.8008,-2.8035,-2.8005,-2.8035,-2.8033,-2.8025,-2.8038,-2.8039,-2.8069,-2.8078,-2.8095,-2.8163,-2.8169,0,0,0,-2.8045,-2.8057,-2.8062,-2.8069,-2.8068,-2.8067,-2.8059,-2.8058,-2.8068,-2.8034,-2.808,-2.8085,-2.8095,-2.8102,-2.8107,-2.8114,-2.8047,-2.8047,-2.8047,-2.8113,-2.8101,-2.8127,-2.8115,-2.8122,-2.8114,-2.8118,-2.8115,-2.8101,-2.8113,-2.8116,-2.8158,-2.8167,-2.8171,-2.8178,-2.8125,-2.8125,-2.8125,-2.8125,-2.8168,-2.8182,-2.8163,-2.818,-2.8167,-2.8182,-2.8174,-2.8164,-2.8175,-2.8155,-2.8163,-2.814,-2.8179,-2.8184,-2.8127,-2.8126,-2.8126,-2.8126,-2.8126,-2.821,-2.8214,-2.8213,-2.8221,-2.8229,-2.8216,-2.8227,-2.8216,-2.8205,-2.8213,-2.8213,-2.8213,-2.821,-2.8214,-2.8214,-2.8215,-2.8215,-2.8215,-2.8215,-2.8254,-2.8251,-2.8262,-2.8262,-2.8265,-2.8266,-2.8258,-2.826,-2.8258,-2.8249,-2.8249,-2.8233,-2.8185,-2.8172,-2.8217,-2.8217,-2.8216,-2.8216,-2.8216,-2.8311,-2.8296,-2.8313,-2.8315,-2.8314,-2.8321,-2.8307,-2.8311,-2.8311,-2.8317,-2.83,-2.8267,-2.8259,-2.8254,-2.8243,-2.8303,-2.8303,-2.8303,-2.8303,-2.8345,-2.834,-2.8353,-2.8357,-2.836,-2.8349,-2.8367,-2.836,-2.8351,-2.835,-2.834,-2.8325,-2.8321,-2.8315,-2.8309,-2.8299,-2.8372,-2.8372,-2.8372,-2.8378,-2.8373,-2.839,-2.8381,-2.838,-2.8378,-2.8395,-2.84,-2.8387,-2.8375,-2.8349,-2.8346,-2.8322,-2.8315,-2.8301,-2.8292,-2.8273,0,0]}]]